Location: Unspecified
(0.0000°N, 0.0000°E)
Time: 05:16:38
(UTC+00:00)

NNS O-25 - Visible Passes

Search period start: 08 June 2023 00:00
Search period end: 18 June 2023 00:00
Orbit: 1028 x 1172 km, 90.0° (Epoch: 07 June)

Date Brightness Start Highest point End Pass type
(mag) Time Alt. Az. Time Alt. Az. Time Alt. Az.
08 Jun 7.7 19:49:08 10° N 19:56:16 76° E 19:58:54 43° S visible
09 Jun 8.5 19:05:43 10° NE 19:11:53 32° E 19:15:04 23° SE visible
09 Jun 9.6 20:52:53 10° NNW 20:58:36 26° W 21:02:27 17° SW visible
10 Jun 9.4 18:25:15 10° ENE 18:27:32 12° E 18:29:48 10° ESE visible
10 Jun 8.2 20:07:11 10° N 20:14:15 64° W 20:18:39 25° SSW visible
11 Jun 7.9 19:22:54 10° NNE 19:29:52 56° E 19:34:55 19° SSE visible
11 Jun 10.3 21:13:10 10° WNW 21:16:32 14° W 21:19:56 10° WSW visible
12 Jun 8.9 18:40:09 10° NE 18:45:29 23° E 18:50:46 10° SE visible
12 Jun 9.1 20:25:48 10° NNW 20:32:12 36° W 20:38:34 10° SSW visible
13 Jun 7.8 19:40:41 10° N 19:47:51 86° W 19:54:56 10° S visible
14 Jun 8.2 18:56:53 10° NNE 19:03:28 40° E 19:09:57 10° SSE visible
14 Jun 10.0 20:45:13 10° NW 20:50:09 20° W 20:55:04 10° SW visible
15 Jun 8.6 19:58:59 10° NNW 20:05:49 50° W 20:12:34 10° SSW visible
16 Jun 7.8 19:14:20 10° N 19:21:26 71° E 19:28:25 10° S visible
17 Jun 8.6 18:31:05 10° NE 18:37:03 29° E 18:42:55 10° SSE visible
17 Jun 9.6 20:17:53 10° NNW 20:23:46 28° W 20:29:34 10° SW visible
